Regional Weather Roundup
Issued by NWS

Home | Current Version | Previous Version | Graphics & Text | Print | Product List | Glossary On
Versions: 1 2 3 4 5 6 7 8 9 10 11 12 13 14 15 16 17 18 19 20 21 22 23 24 25 26 27 28 29 30 31 32 33 34 35 36 37 38 39 40 41 42 43 44 45 46 47 48 49 50
000
ASUS45 KSLC 250910
RWRUT

UTAH REGIONAL WEATHER ROUNDUP
NATIONAL WEATHER SERVICE SALT LAKE CITY UT
300 AM MDT SAT APR 25 2015

UTZ001>011-023>025-251000-

NORTHERN UTAH

CITY           SKY/WX    TMP DP  RH WIND       PRES   REMARKS
BRIGHAM CITY   CLOUDY    43  39  86 NW5       29.82S
HILL AFB       MOCLDY    43  41  93 SW8       29.82F
LOGAN          RAIN      41  39  93 NW7       29.80R FOG
OGDEN          MOCLDY    45  40  82 S9        29.81S
PROVO AIRPORT  PTCLDY    45  37  76 NW12      29.83S
SALT LAKE CITY MOCLDY    47  42  83 N5        29.82S
VERNAL         CLOUDY    46  41  82 CALM      29.76S
WENDOVER       MOCLDY    43  27  52 CALM      29.82F
HEBER CITY     CLOUDY    37  36  93 N6        29.82S WCI  33
WEST JORDAN    MOCLDY    45  43  93 SW3       29.84R

$$

UTZ012>022-026-027-251000-

SOUTHERN/CENTRAL UTAH

CITY           SKY/WX    TMP DP  RH WIND       PRES   REMARKS
BLANDING       CLOUDY    46  36  68 S9        29.94F
BRYCE CANYON   FLURRIES  34  32  92 CALM      29.91F
CEDAR CITY     CLOUDY    42  38  85 CALM      29.86F
DELTA          CLOUDY    46  41  84 SE7       29.83S
HANKSVILLE     CLOUDY    54  37  54 SW16G29   29.80R
MILFORD        CLOUDY    45  31  58 SW16      29.83S
MOAB/CYNLANDS  LGT RAIN  58  35  42 W12       29.75R
PRICE          CLOUDY    45  36  70 CALM      29.81S
ST GEORGE      CLOUDY    54  46  76 CALM      29.85F
KANAB          CLOUDY    48  41  76 W7        29.92R

$$

REGIONAL REPORTS     COLORADO/ARIZONA

CITY           SKY/WX    TMP DP  RH WIND       PRES   REMARKS
CRAIG, CO      MOCLDY    40  29  64 E3        29.77S
GRAND JUNCTION CLOUDY    50  33  52 SE17      29.76S
RIFLE          CLOUDY    39  32  76 CALM      29.80F
MONTROSE       CLOUDY    40  33  76 SE6       29.86S
CORTEZ         CLOUDY    49  36  61 S18       29.91S
PAGE, AZ       CLOUDY    59  35  40 SW6       29.82F
GRAND CANYON   CLOUDY    43  35  73 SW10      29.96F
KINGMAN        PTCLDY    52  39  61 S8        29.86F
FLAGSTAFF      CLOUDY    40  39  97 SW13      29.98F WCI  32

$$

REGIONAL REPORTS    NEVADA/IDAHO/WYOMING

CITY           SKY/WX    TMP DP  RH WIND       PRES   REMARKS
LAS VEGAS, NV  PTCLDY    61  38  42 S16       29.73F
ELY            CLOUDY    36  34  92 S9        29.86F WCI  29
ELKO           CLOUDY    39  36  89 S7        29.82F WCI  34
POCATELLO, ID  CLOUDY    43  33  68 SW14      29.79R
BURLEY         CLOUDY    39  32  76 W8        29.77F WCI  33
EVANSTON, WY   PTCLDY    34 N/A N/A SW16      29.80S WCI  24
ROCK SPRINGS   LGT RAIN  38  36  92 W14       29.76R WCI  30

$$


USA.gov is the U.S. government's official web portal to all federal, state and local government web resources and services.